Bat Cave, NC

3:07 AM EDT on August 25, 2016 (GMT -0400)
Asheville Regional

Weather History for KAVL - September, 2010

Change the Weather History Date:

Sunday, September 26, 2010

  Actual Average Record
Temperature  
Mean Temperature 63 °F 63 °F  
Max Temperature 66 °F 74 °F 86 °F (1945)
Min Temperature 59 °F 52 °F 38 °F (1943)
Degree Days  
Heating Degree Days 2 4  
Month to date heating degree days 4 36  
Since 1 July heating degree days 4 38  
Cooling Degree Days 0 1  
Month to date cooling degree days 128 91  
Year to date cooling degree days 1205 848  
Growing Degree Days 12 (Base 50)    
Moisture  
Dew Point 61 °F    
Average Humidity 92    
Maximum Humidity 100    
Minimum Humidity 84    
Precipitation  
Precipitation 1.11 in 0.12 in 1.71 in (1956)
Month to date precipitation 2.98 3.34  
Year to date precipitation 33.40 34.95  
Snow  
Snow 0.00 in 0.00 in 0.00 in ()
Month to date snowfall 0.0 0.0  
Since 1 July snowfall 0.0 0.0  
Since 1 September snowfall 0.0 0.0  
Snow Depth 0.00 in    
Sea Level Pressure  
Sea Level Pressure 29.93 in    
Wind  
Wind Speed 2 mph (ENE)    
Max Wind Speed 8 mph    
Max Gust Speed 12 mph    
Visibility 6 miles    
Events Rain , Thunderstorm    
T = Trace of Precipitation, MM = Missing Value Source: NWS Daily Summary

Daily Weather History Graph

Daily Weather History Graph

Search for Another Location

Airport or City:

Trip Planner

Search our weather history database for the weather conditions in past years. The results will help you decide how hot, cold, wet, or windy it might be!

Date:

Astronomy

Sep. 26, 2010 Rise Set
Actual Time 7:21 AM EDT 7:21 PM EDT
Civil Twilight 6:55 AM EDT 7:46 PM EDT
Nautical Twilight 6:26 AM EDT 8:16 PM EDT
Astronomical Twilight 5:56 AM EDT 8:45 PM EDT
Moon 8:51 PM EDT (9/26) 10:25 AM EDT (9/26)
Length of Visible Light 12h 50m
Length of Day
12h 00m
Waning Gibbous, 90% of the Moon is Illuminated
Sep 26
Waning Gibbous
Sep 30
Last Quarter
Oct 7
New
Oct 14
First Quarter
Oct 22
Full

Hourly Weather History & Observations

Time (EDT) Temp. Dew Point Humidity Pressure Visibility Wind Dir Wind Speed Gust Speed Precip Events Conditions
12:54 AM 64.9 °F 64.0 °F 97% 29.93 in 9.0 mi NNW 3.5 mph - 0.00 in Rain Light Rain
1:54 AM 66.0 °F 64.0 °F 93% 29.91 in 7.0 mi NNW 3.5 mph - 0.00 in   Overcast
2:54 AM 64.9 °F 64.0 °F 97% 29.90 in 7.0 mi Calm Calm - N/A   Mostly Cloudy
3:05 AM 64.4 °F 64.4 °F 100% 29.98 in 6.0 mi South 3.5 mph - N/A   Mostly Cloudy
3:54 AM 64.0 °F 63.0 °F 96% 29.89 in 3.0 mi Calm Calm - N/A   Partly Cloudy
4:10 AM 64.4 °F 64.4 °F 100% 29.96 in 5.0 mi Calm Calm - N/A   Mostly Cloudy
4:54 AM 64.9 °F 64.0 °F 97% 29.88 in 6.0 mi Calm Calm - N/A   Mostly Cloudy
5:18 AM 64.4 °F 64.4 °F 100% 29.95 in 4.0 mi Calm Calm - N/A   Overcast
5:28 AM 64.4 °F 64.4 °F 100% 29.95 in 2.0 mi Calm Calm - 0.01 in Rain , Thunderstorm Light Rain
5:30 AM 64.4 °F 64.4 °F 100% 29.94 in 1.2 mi Calm Calm - 0.02 in Rain , Thunderstorm Heavy Rain
5:42 AM 64.4 °F 64.4 °F 100% 29.95 in 2.0 mi Calm Calm - 0.11 in Rain , Thunderstorm Rain
5:54 AM 64.0 °F 64.0 °F 100% 29.90 in 1.5 mi WSW 5.8 mph - 0.13 in Rain , Thunderstorm Rain
6:01 AM 64.4 °F 64.4 °F 100% 29.96 in 1.0 mi SW 4.6 mph - 0.17 in Rain Heavy Rain
6:06 AM 64.4 °F 64.4 °F 100% 29.96 in 2.0 mi Calm Calm - 0.22 in Rain Rain
6:11 AM 64.4 °F 64.4 °F 100% 29.96 in 4.0 mi WNW 3.5 mph - 0.22 in Rain Light Rain
6:19 AM 64.4 °F 64.4 °F 100% 29.96 in 5.0 mi Calm Calm - 0.23 in Rain Light Rain
6:54 AM 64.9 °F 64.0 °F 97% 29.90 in 7.0 mi Calm Calm - 0.24 in Rain Light Rain
7:54 AM 64.9 °F 64.0 °F 97% 29.91 in 4.0 mi Calm Calm - 0.15 in Rain Rain
7:59 AM 64.4 °F 64.4 °F 100% 29.97 in 2.0 mi Calm Calm - 0.00 in Rain Light Rain
8:44 AM 64.4 °F 64.4 °F 100% 29.98 in 2.0 mi Calm Calm - 0.01 in   Overcast
8:54 AM 64.9 °F 64.0 °F 97% 29.92 in 2.0 mi Calm Calm - 0.01 in   Overcast
9:00 AM 64.4 °F 64.4 °F 100% 29.98 in 7.0 mi Calm Calm - N/A   Overcast
9:13 AM 64.4 °F 64.4 °F 100% 29.99 in 2.5 mi Calm Calm - 0.01 in Rain Heavy Rain
9:23 AM 64.4 °F 64.4 °F 100% 29.99 in 1.5 mi Calm Calm - 0.07 in Rain Heavy Rain
9:41 AM 64.4 °F 64.4 °F 100% 29.98 in 2.0 mi East 3.5 mph - 0.16 in Rain Rain
9:48 AM 64.4 °F 64.4 °F 100% 29.98 in 4.0 mi East 3.5 mph - 0.17 in Rain Light Rain
9:54 AM 64.9 °F 64.0 °F 97% 29.92 in 5.0 mi ESE 4.6 mph - 0.17 in Rain Light Rain
10:18 AM 64.4 °F 64.4 °F 100% 29.98 in 4.0 mi Variable 3.5 mph - 0.01 in Rain Rain
10:30 AM 64.4 °F 64.4 °F 100% 29.97 in 6.0 mi Variable 3.5 mph - 0.02 in Rain Light Rain
10:40 AM 64.4 °F 62.6 °F 94% 29.97 in 10.0 mi NE 4.6 mph - 0.02 in Rain Light Rain
10:54 AM 64.0 °F 63.0 °F 96% 29.91 in 10.0 mi Variable 3.5 mph - 0.02 in   Mostly Cloudy
11:45 AM 64.4 °F 60.8 °F 88% 29.98 in 10.0 mi Variable 3.5 mph - 0.00 in   Mostly Cloudy
11:54 AM 64.0 °F 61.0 °F 90% 29.92 in 10.0 mi Calm Calm - 0.00 in   Overcast
12:07 PM 62.6 °F 60.8 °F 94% 29.98 in 10.0 mi East 3.5 mph - 0.00 in Rain Light Rain
12:54 PM 62.1 °F 59.0 °F 90% 29.93 in 10.0 mi ENE 5.8 mph - 0.00 in   Overcast
1:05 PM 62.6 °F 59.0 °F 88% 29.98 in 10.0 mi Variable 3.5 mph - N/A   Overcast
1:54 PM 63.0 °F 57.9 °F 84% 29.90 in 10.0 mi NE 4.6 mph - N/A   Overcast
2:01 PM 62.6 °F 57.2 °F 82% 29.95 in 10.0 mi NNE 3.5 mph - N/A   Overcast
2:18 PM 62.6 °F 57.2 °F 82% 29.95 in 10.0 mi NE 3.5 mph - N/A   Overcast
2:54 PM 63.0 °F 57.0 °F 81% 29.88 in 10.0 mi Variable 3.5 mph - N/A   Overcast
3:02 PM 62.6 °F 57.2 °F 82% 29.93 in 10.0 mi Calm Calm - N/A   Overcast
3:54 PM 63.0 °F 57.9 °F 84% 29.86 in 7.0 mi South 3.5 mph - N/A   Overcast
4:54 PM 62.1 °F 59.0 °F 90% 29.87 in 6.0 mi Calm Calm - 0.05 in Rain Light Rain
5:54 PM 60.1 °F 57.9 °F 93% 29.89 in 4.0 mi NNE 3.5 mph - 0.03 in Rain Light Rain
6:01 PM 60.8 °F 57.2 °F 88% 29.94 in 5.0 mi NE 3.5 mph - 0.00 in Rain Light Rain
6:54 PM 59.0 °F 57.9 °F 96% 29.89 in 6.0 mi Calm Calm - 0.04 in Rain Light Rain
7:54 PM 59.0 °F 57.9 °F 96% 29.87 in 5.0 mi Calm Calm - 0.10 in Rain Rain
8:01 PM 59.0 °F 57.2 °F 94% 29.92 in 5.0 mi Calm Calm - 0.01 in Rain Rain
8:13 PM 59.0 °F 57.2 °F 94% 29.91 in 5.0 mi Calm Calm - 0.04 in Rain Rain
8:22 PM 59.0 °F 57.2 °F 94% 29.91 in 6.0 mi Calm Calm - 0.05 in Rain Light Rain
8:43 PM 59.0 °F 57.2 °F 94% 29.92 in 6.0 mi Calm Calm - 0.06 in Rain Light Rain
8:54 PM 59.0 °F 59.0 °F 100% 29.92 in 5.0 mi Calm Calm - N/A Rain Light Rain
9:54 PM 59.0 °F 57.9 °F 96% 29.86 in 5.0 mi Calm Calm - 0.07 in Rain Light Rain
10:19 PM 59.0 °F 57.2 °F 94% 29.91 in 7.0 mi Calm Calm - 0.01 in Rain Light Rain
10:54 PM 59.0 °F 57.9 °F 96% 29.85 in 8.0 mi Calm Calm - 0.02 in Rain Light Rain
11:54 PM 59.0 °F 57.9 °F 96% 29.84 in 9.0 mi SSW 3.5 mph - 0.00 in Rain Light Rain